[[{"header":{"parameterUnit":"m.s-1","parameterCategory":1,"la1":30.2991,"la2":30.254,"lo1":-89.0895,"lo2":-89.0444,"dy":0.0017,"dx":0.0017,"nx":28,"ny":28,"refTime":"2023-09-23T21:00:00:Z","depth":0,"parameterNumber":2,"parameterNumberName":"U-component_of_WINDS"},"data":[0,0,0,0,0,0,0,0,0,0,0,0,0,0,0,0,0,0,0,0,0,0,0,0,0,0,0,0,0,0,0,0,0,0,0,0,0,0,0,0,0,0,0,0,0,0,0,0,0,0,0,0,0,0,0,0,0,0,1.7876,1.7878,0,1.8054,1.8056,1.8058,1.8153,1.8153,1.8153,1.8153,1.8336,1.8341,1.8345,0,0,0,0,0,0,0,0,0,0,0,0,0,1.7619,1.7623,1.7876,1.7878,1.788,1.8053,1.8056,1.8058,1.8153,1.8153,1.8153,1.8153,1.8335,1.834,1.8346,0,0,0,0,0,0,0,0,0,0,0,0,0,1.7757,1.7624,1.7875,1.7948,1.7957,1.8053,1.8056,1.8059,1.8153,1.8153,1.8153,1.8153,1.8333,1.834,1.8347,1.8385,0,0,1.8368,1.8371,0,0,0,0,0,0,0,0,1.7749,1.7766,1.7935,1.7943,1.7953,1.8081,1.8032,1.8168,1.8153,1.8078,1.8153,1.8154,1.8251,1.8265,1.8298,1.8393,1.8401,1.8369,1.8373,1.8376,1.8378,0,0,0,0,0,0,0,1.7739,1.7759,1.7946,1.7938,1.7948,1.7972,1.7992,1.8059,1.8161,1.8085,1.8092,1.8112,1.8256,1.8291,1.8303,1.8404,1.8369,1.8375,1.8379,1.8382,1.8538,1.8538,0,0,0,0,0,0,1.7718,1.775,1.7941,1.7952,1.7849,1.7976,1.7999,1.804,1.8161,1.8179,1.8111,1.8115,1.8279,1.8294,1.831,1.8361,1.8376,1.8383,1.8387,1.8538,1.8538,1.8538,0,0,0,0,0,0,1.7712,1.7734,1.7934,1.7853,1.788,1.7981,1.8026,1.8043,1.8078,1.8181,1.8199,1.8128,1.8279,1.83,1.8365,1.8369,1.8386,1.8392,1.8538,1.8538,1.8538,1.8465,0,0,0,0,0,0,1.7704,1.7731,1.7746,1.7853,1.7884,1.7986,1.8026,1.8046,1.809,1.8097,1.8201,1.8219,1.8281,1.8354,1.8372,1.8379,1.8398,1.8539,1.8538,1.8538,1.8468,1.8463,1.8458,0,0,0,0,0,1.7694,1.7719,1.7747,1.7769,1.7906,1.7986,1.8004,1.8075,1.809,1.8106,1.8172,1.8215,1.8366,1.836,1.8381,1.839,1.8539,1.8538,1.8538,1.847,1.8464,1.8458,0,0,0,0,0,0,1.7612,1.7735,1.7766,1.7826,1.7895,1.8001,1.8024,1.8066,1.8132,1.8136,1.8222,1.8245,1.8302,1.8353,1.8344,1.8433,1.8457,1.8461,1.8397,1.8392,1.8388,1.8374,1.8404,0,0,0,0,0,1.76,1.7655,1.776,1.7802,1.7835,1.7923,1.7961,1.801,1.8084,1.8114,1.8185,1.8255,1.8318,1.8358,1.8422,1.8476,1.8499,1.8492,1.8487,1.8483,1.8485,1.8517,1.8514,1.8538,1.8538,1.8538,0,0,1.7578,1.7651,1.7681,1.7787,1.7846,1.7901,1.7947,1.8003,1.8045,1.8123,1.8188,1.8242,1.8327,1.8386,1.8416,1.843,1.8484,1.8483,1.8479,1.8484,1.8516,1.8514,1.8512,1.8537,1.8537,1.8537,0,0,1.7564,1.7625,1.7668,1.7725,1.7813,1.7872,1.7881,1.7982,1.8021,1.8088,1.8147,1.8197,1.8305,1.8362,1.8405,1.8412,1.8454,1.843,1.8406,1.8435,1.8433,1.8432,1.8433,1.8433,1.8432,1.8432,1.8432,0,1.7525,1.7609,1.7684,1.7736,1.7781,1.7853,1.7896,1.7949,1.8053,1.8082,1.8097,1.8232,1.8295,1.8368,1.8369,1.8402,1.8415,1.8419,1.8427,1.8427,1.8427,1.8429,1.843,1.8429,1.8429,1.8429,1.843,0,1.7556,1.7614,1.7637,1.7735,1.7783,1.783,1.7912,1.7951,1.7995,1.8052,1.8119,1.8196,1.8276,1.8297,1.8341,1.8376,1.8382,1.8411,1.8436,1.842,1.8423,1.8425,1.8424,1.8425,1.8426,1.8427,0,0,1.7496,1.7634,1.7641,1.7686,1.7788,1.7834,1.7884,1.7962,1.7994,1.8063,1.8107,1.8195,1.8222,1.8271,1.8322,1.8348,1.8347,1.8374,1.8377,1.8366,1.8389,1.8366,1.8366,1.8376,1.8376,1.8376,1.8382,0,1.7497,1.759,1.7658,1.7725,1.7779,1.7848,1.7891,1.7958,1.8012,1.8066,1.8126,1.8187,1.8218,1.8248,1.8276,1.8341,1.8353,1.8342,1.8417,1.8419,1.8393,1.8369,1.8345,1.8347,1.8384,1.8384,1.8384,0,1.751,1.7576,1.7648,1.7743,1.7768,1.7806,1.7882,1.7933,1.801,1.8047,1.8101,1.8153,1.8209,1.8229,1.8307,1.8297,1.8332,1.8368,1.837,1.838,1.84,1.8377,1.8349,1.8349,1.8388,1.8387,1.8387,0,1.7458,1.7565,1.7622,1.7658,1.7771,1.7796,1.7844,1.7921,1.7963,1.803,1.8058,1.813,1.8169,1.8224,1.8294,1.8303,1.8364,1.8391,1.8397,1.8395,1.8407,1.8405,1.8383,1.8429,1.8429,1.8429,1.8429,0,1.7451,1.7493,1.76,1.7634,1.7682,1.776,1.7806,1.786,1.7928,1.7974,1.8038,1.808,1.8171,1.8223,1.8279,1.8334,1.8352,1.8383,1.8397,1.8377,1.8373,1.8401,1.8403,1.843,1.8429,1.8429,1.8429,0,1.7402,1.7475,1.7541,1.7642,1.7668,1.7699,1.7785,1.7821,1.7878,1.7936,1.7954,1.8044,1.8109,1.8185,1.8275,1.8312,1.8363,1.8384,1.8337,1.8345,1.8346,1.8345,1.8342,1.8345,1.8389,1.8388,1.8388,0,1.7392,1.7425,1.7529,1.7564,1.761,1.7667,1.771,1.7787,1.7829,1.7919,1.7944,1.8014,1.8074,1.8176,1.8249,1.8318,1.8341,1.8335,1.8352,1.833,1.834,1.8337,1.8341,1.833,1.833,1.8329,1.8328,0,1.7367,1.7402,1.7461,1.7532,1.7582,1.7642,1.7705,1.773,1.782,1.7864,1.7932,1.7978,1.807,1.8139,1.8217,1.8267,1.8312,1.8322,1.8327,1.8307,1.8278,1.8293,1.8323,1.8322,1.8323,1.8323,1.8324,1.8324,1.7338,1.737,1.7447,1.7511,1.7566,1.7623,1.7661,1.7723,1.778,1.7861,1.7903,1.7969,1.8045,1.8155,1.8203,1.8255,1.8271,1.8278,1.828,1.8281,1.8274,1.8269,1.827,1.827,1.8271,1.8271,1.8271,0,1.7315,1.7368,1.7426,1.7511,1.7561,1.7599,1.7671,1.7709,1.7767,1.7833,1.7891,1.7968,1.8034,1.8112,1.8184,1.8211,1.8233,1.8227,1.8226,1.8236,1.8257,1.8245,1.8207,1.8207,1.8207,1.8207,1.8207,1.8207,1.731,1.7366,1.7409,1.7493,1.7546,1.7611,1.7649,1.7701,1.7754,1.7837,1.7892,1.7943,1.8014,1.8091,1.8153,1.8174,1.8197,1.8184,1.8211,1.8229,1.8235,1.824,1.8229,1.8189,1.8189,1.8186,1.8186,1.8186]},{"header":{"parameterUnit":"m.s-1","parameterCategory":1,"la1":30.2991,"la2":30.254,"lo1":-89.0895,"lo2":-89.0444,"dy":0.0017,"dx":0.0017,"nx":28,"ny":28,"refTime":"2023-09-23T21:00:00:Z","depth":0,"parameterNumber":3,"parameterNumberName":"V-component_of_WINDS"},"data":[0,0,0,0,0,0,0,0,0,0,0,0,0,0,0,0,0,0,0,0,0,0,0,0,0,0,0,0,0,0,0,0,0,0,0,0,0,0,0,0,0,0,0,0,0,0,0,0,0,0,0,0,0,0,0,0,0,0,1.6065,1.6066,0,1.6139,1.614,1.6141,1.6205,1.6206,1.6207,1.6208,1.6287,1.6288,1.629,0,0,0,0,0,0,0,0,0,0,0,0,0,1.5981,1.5982,1.6065,1.6066,1.6067,1.6139,1.614,1.6141,1.6205,1.6206,1.6207,1.6208,1.6286,1.6288,1.629,0,0,0,0,0,0,0,0,0,0,0,0,0,1.6033,1.5983,1.6065,1.6107,1.6112,1.6139,1.614,1.6141,1.6205,1.6206,1.6207,1.6208,1.6286,1.6288,1.629,1.6282,0,0,1.6297,1.6297,0,0,0,0,0,0,0,0,1.603,1.6036,1.61,1.6104,1.611,1.6164,1.614,1.6188,1.6205,1.617,1.6208,1.6209,1.6245,1.6251,1.6262,1.6285,1.6289,1.6297,1.6298,1.6299,1.63,0,0,0,0,0,0,0,1.6026,1.6033,1.6094,1.6101,1.6107,1.6124,1.6132,1.6149,1.6201,1.6173,1.6178,1.6186,1.6248,1.626,1.6265,1.629,1.6297,1.6299,1.63,1.6301,1.631,1.6309,0,0,0,0,0,0,1.6016,1.603,1.6092,1.6097,1.6071,1.6124,1.6134,1.6146,1.6201,1.621,1.6185,1.6188,1.6256,1.6262,1.6268,1.6262,1.6299,1.6301,1.6302,1.6311,1.631,1.6309,0,0,0,0,0,0,1.6013,1.602,1.6089,1.6064,1.6074,1.6125,1.6137,1.6146,1.6159,1.6209,1.6219,1.6187,1.6257,1.6265,1.6278,1.6266,1.6302,1.6304,1.6313,1.6311,1.6309,1.625,0,0,0,0,0,0,1.6011,1.6019,1.6016,1.6064,1.6075,1.6096,1.6136,1.6147,1.6162,1.6167,1.6215,1.6223,1.6259,1.6274,1.628,1.627,1.6306,1.6314,1.6312,1.631,1.6254,1.6247,1.6241,0,0,0,0,0,1.6008,1.5997,1.6015,1.6023,1.6072,1.6095,1.6102,1.6142,1.616,1.6158,1.6191,1.6222,1.6266,1.6275,1.6282,1.6272,1.6315,1.6312,1.631,1.6256,1.6248,1.6241,0,0,0,0,0,0,1.5947,1.6004,1.6025,1.6029,1.6057,1.6106,1.6104,1.6132,1.6156,1.616,1.621,1.622,1.6227,1.6251,1.626,1.6267,1.6295,1.6294,1.6251,1.6244,1.6238,1.6233,1.6307,0,0,0,0,0,1.5934,1.5948,1.5997,1.5996,1.6009,1.6054,1.6066,1.6094,1.6125,1.6137,1.6171,1.62,1.6221,1.6234,1.6256,1.6257,1.6269,1.6254,1.6248,1.6242,1.6241,1.6245,1.6239,1.6301,1.6301,1.6301,0,0,1.5908,1.5941,1.5946,1.5985,1.6009,1.6023,1.6063,1.6076,1.6087,1.614,1.6154,1.6179,1.6216,1.6223,1.6228,1.6243,1.6226,1.6239,1.6235,1.6237,1.6242,1.6236,1.623,1.63,1.63,1.63,0,0,1.5868,1.5893,1.5895,1.5919,1.5956,1.5986,1.5986,1.6031,1.605,1.6064,1.6104,1.6118,1.6153,1.6177,1.6194,1.6162,1.6193,1.6168,1.6137,1.6139,1.6134,1.613,1.612,1.6115,1.6167,1.6167,1.6166,0,1.5831,1.5852,1.5893,1.5903,1.592,1.5966,1.597,1.5991,1.6033,1.6044,1.606,1.6104,1.6132,1.6146,1.6138,1.6149,1.6153,1.6164,1.6131,1.6128,1.6125,1.6115,1.6111,1.6163,1.6164,1.6164,1.6164,0,1.5805,1.5819,1.5817,1.5855,1.5871,1.5878,1.5921,1.5932,1.5959,1.5987,1.6002,1.6037,1.6067,1.6072,1.6099,1.609,1.6098,1.6122,1.6151,1.6115,1.6107,1.6104,1.6159,1.616,1.6161,1.6162,0,0,1.573,1.579,1.5789,1.5807,1.5851,1.5863,1.5872,1.59,1.5909,1.5937,1.5946,1.5974,1.5996,1.6015,1.6045,1.6047,1.6021,1.6071,1.6073,1.6061,1.6014,1.5997,1.5992,1.604,1.604,1.6039,1.6012,0,1.5697,1.5715,1.5752,1.5759,1.5773,1.5818,1.5826,1.5854,1.5881,1.5897,1.5928,1.5947,1.5974,1.5986,1.599,1.6023,1.6012,1.6025,1.6051,1.6052,1.6042,1.5988,1.5969,1.5942,1.6009,1.6008,1.6008,0,1.5661,1.5685,1.5693,1.5736,1.5743,1.5749,1.5779,1.5793,1.5827,1.5846,1.5867,1.5899,1.5913,1.5938,1.5957,1.5965,1.5978,1.5996,1.5996,1.6001,1.6028,1.5992,1.5934,1.593,1.6003,1.6004,1.6004,0,1.5606,1.564,1.565,1.5664,1.5714,1.5717,1.5738,1.5772,1.5787,1.5813,1.5823,1.585,1.5865,1.5886,1.5925,1.594,1.594,1.5969,1.5958,1.5957,1.5957,1.5957,1.5901,1.5963,1.5963,1.5963,1.5963,0,1.5566,1.557,1.5626,1.5631,1.5637,1.568,1.5684,1.5709,1.5739,1.5752,1.5792,1.5803,1.5853,1.587,1.5901,1.5913,1.5919,1.5936,1.5945,1.5933,1.5931,1.5943,1.5947,1.5962,1.5962,1.5963,1.5963,0,1.5506,1.5544,1.5557,1.5603,1.5615,1.5616,1.5656,1.5664,1.5693,1.5708,1.5714,1.576,1.5782,1.5823,1.5857,1.5878,1.5884,1.5897,1.5872,1.5877,1.5865,1.5866,1.5815,1.5811,1.5875,1.5874,1.5873,0,1.5479,1.5483,1.5529,1.5539,1.5559,1.5575,1.559,1.5633,1.5647,1.5684,1.5688,1.5713,1.5735,1.5769,1.5806,1.5832,1.5848,1.5828,1.5852,1.5841,1.5849,1.5849,1.585,1.5823,1.5822,1.5821,1.5821,0,1.5427,1.5445,1.5465,1.549,1.5507,1.5529,1.5554,1.5561,1.5609,1.5623,1.5646,1.5663,1.5697,1.5722,1.5754,1.5777,1.5807,1.5813,1.5812,1.5801,1.5787,1.5795,1.5859,1.5814,1.5815,1.5815,1.5816,1.5816,1.5383,1.5389,1.5422,1.5442,1.5465,1.5488,1.5497,1.5527,1.5546,1.5577,1.5601,1.5622,1.5655,1.5701,1.5722,1.574,1.5754,1.5752,1.5752,1.5751,1.5747,1.5782,1.5745,1.5746,1.5746,1.5746,1.5746,0,1.5334,1.5358,1.5376,1.5409,1.5425,1.5451,1.548,1.5492,1.5509,1.5538,1.5558,1.5585,1.5609,1.5647,1.5675,1.5682,1.5697,1.5688,1.5688,1.5694,1.5732,1.5731,1.5675,1.5675,1.5675,1.5675,1.5675,1.5675,1.5311,1.5321,1.5343,1.5366,1.539,1.541,1.5424,1.5445,1.5468,1.5495,1.5515,1.5539,1.5572,1.5602,1.5626,1.5637,1.5646,1.5633,1.5648,1.5684,1.5691,1.5697,1.5696,1.5634,1.5634,1.5608,1.5608,1.5608]}]]